Regional Weather Roundup
Issued by NWS

Home | Current Version | Previous Version | Graphics & Text | Print | Product List | Glossary On
Versions: 1 2 3 4 5 6 7 8 9 10 11 12 13 14 15 16 17 18 19 20 21 22 23 24 25 26 27
000
ASUS45 KBOI 222310
RWRID

IDAHO REGIONAL WEATHER ROUNDUP
NATIONAL WEATHER SERVICE BOISE ID
500 PM MDT SUN APR 22 2018

NOTE: "FAIR" INDICATES FEW OR NO CLOUDS BELOW 12000 FEET
WITH NO SIGNIFICANT WEATHER AND/OR OBSTRUCTIONS TO VISIBILITY

IDZ012-014-230000-
SOUTHWEST IDAHO


CITY           SKY/WX    TMP DP  RH WIND       PRES   REMARKS
BOISE          PTSUNNY   65  31  28 NW18G25   30.02F
CALDWELL       PTSUNNY   64  27  24 NW13      30.04F
MOUNTAIN HOME  PTSUNNY   65  29  26 NW23G30   29.99F
$$

IDZ016-017-230000-
SOUTHCENTRAL IDAHO


CITY           SKY/WX    TMP DP  RH WIND       PRES   REMARKS
BURLEY         MOSUNNY   65  36  34 W13G23    29.96F
JEROME         MOSUNNY   64  35  34 W13       29.99F
TWIN FALLS     MOSUNNY   63  35  35 W9        30.00F
$$

IDZ019>023-230000-
SOUTHEAST IDAHO


CITY           SKY/WX    TMP DP  RH WIND       PRES   REMARKS
IDAHO FALLS    MOSUNNY   71  29  21 SW17G23   29.98F
POCATELLO      MOSUNNY   74  32  21 W9        29.96F
REXBURG        MOSUNNY   68  28  22 SW12      29.98F
$$

IDZ006-010-011-018-031-032-230000-
CENTRAL IDAHO MOUNTAINS


CITY           SKY/WX    TMP DP  RH WIND       PRES   REMARKS
MCCALL         MOSUNNY   56  26  31 W7        30.05F
HAILEY         MOSUNNY   64  34  32 S12G18    30.00F
STANLEY          N/A     56  28  34 CALM      30.05S
SALMON         CLOUDY    64  32  30 N12       29.95F
CHALLIS        CLOUDY    69  24  18 W9G24     29.94F
$$

IDZ002-004-006-007-026-230000-
NORTHERN IDAHO


CITY           SKY/WX    TMP DP  RH WIND       PRES   REMARKS
LEWISTON       SUNNY     61  28  28 NW9       30.20F
LOWELL           N/A     62  31  31 S8        30.15S
COEUR D`ALENE  MOSUNNY   55  23  28 CALM      30.20F
MULLAN PASS    SUNNY     42  15  33 NW6       30.15F
$$




USA.gov is the U.S. government's official web portal to all federal, state and local government web resources and services.